CW1020 Weather Reports


time (UTC)temp
C
wind
direction
speed
KPH
gust
KPH
rain 1hr
cm
rain 24hr
cm
rain mn
cm
humidity
%
barometer
mb
20211208130041 3 197 1.6 8.0 0.00 0.00 0.00 77 1018.5
20211208125533 3 180 3.2 8.0 0.00 0.00 0.00 77 1018.5
20211208125041 3 159 4.8 8.0 0.00 0.00 0.00 77 1018.4
20211208124534 3 168 0.0 0.0 0.00 0.00 0.00 76 1018.5
20211208124028 4 168 0.0 0.0 0.00 0.00 0.00 75 1018.6
20211208123540 4 168 0.0 0.0 0.00 0.00 0.00 75 1018.6
20211208123033 4 165 0.0 4.8 0.00 0.00 0.00 75 1018.5
20211208122543 4 165 0.0 9.7 0.00 0.00 0.00 75 1018.4
20211208122037 4 164 8.0 9.7 0.00 0.00 0.00 75 1018.3
20211208121530 5 178 4.8 11.3 0.00 0.00 0.00 74 1018.5
20211208121040 5 177 9.7 11.3 0.00 0.00 0.00 74 1018.3
20211208120532 5 171 8.0 9.7 0.00 0.00 0.00 74 1018.2
20211208120046 5 194 4.8 11.3 0.00 0.00 0.00 74 1018.2
20211208115533 5 184 6.4 14.5 0.00 0.00 0.00 73 1018.1
20211208115046 5 182 11.3 12.9 0.00 0.00 0.00 73 1017.9
20211208114539 5 175 8.0 11.3 0.00 0.00 0.00 73 1017.9
20211208114032 5 189 3.2 6.4 0.00 0.00 0.00 75 1017.9
20211208113038 5 121 0.0 9.7 0.00 0.00 0.00 74 1017.6
20211208112531 5 227 1.6 6.4 0.00 0.00 0.00 73 1017.6
20211208112046 6 242 4.8 6.4 0.00 0.00 0.00 72 1017.7
20211208111536 6 244 4.8 6.4 0.00 0.00 0.00 71 1017.6
20211208111028 6 178 6.4 6.4 0.00 0.00 0.00 70 1017.4
20211208110541 6 123 3.2 6.4 0.00 0.00 0.00 71 1017.4
20211208110037 6 123 1.6 4.8 0.00 0.00 0.00 72 1017.6
20211208105542 6 123 0.0 4.8 0.00 0.00 0.00 72 1017.6
20211208105036 6 213 0.0 6.4 0.00 0.00 0.00 73 1017.9
20211208104608 6 213 0.0 9.7 0.00 0.00 0.00 73 1017.9
20211208104043 6 113 0.0 9.7 0.00 0.00 0.00 73 1017.8
20211208103537 6 115 4.8 9.7 0.00 0.00 0.00 73 1017.9
20211208103034 6 111 1.6 12.9 0.00 0.00 0.00 74 1018.0
20211208102545 5 51 1.6 14.5 0.00 0.00 0.00 74 1018.0
20211208102033 5 283 9.7 14.5 0.00 0.00 0.00 74 1018.0
20211208101529 5 280 6.4 8.0 0.00 0.00 0.00 73 1018.0
20211208101040 5 240 4.8 6.4 0.00 0.00 0.00 71 1018.0
20211208100532 5 135 0.0 4.8 0.00 0.00 0.00 71 1018.0
20211208100040 6 127 1.6 4.8 0.00 0.00 0.00 71 1018.1
20211208095531 6 169 0.0 4.8 0.00 0.00 0.00 71 1018.4
20211208095044 6 171 0.0 6.4 0.00 0.00 0.00 71 1018.5
20211208094532 6 171 0.0 0.0 0.00 0.00 0.00 71 1018.4
20211208094043 6 169 0.0 0.0 0.00 0.00 0.00 71 1018.4
20211208093538 6 168 0.0 0.0 0.00 0.00 0.00 71 1018.5
20211208093033 6 157 0.0 0.0 0.00 0.00 0.00 71 1018.5
20211208092543 6 155 0.0 0.0 0.00 0.00 0.00 71 1018.4
20211208092036 6 155 0.0 0.0 0.00 0.00 0.00 71 1018.4
20211208091530 6 155 0.0 3.2 0.00 0.00 0.00 71 1018.5
20211208091042 6 155 1.6 3.2 0.00 0.00 0.00 70 1018.5
20211208090532 6 125 0.0 3.2 0.00 0.00 0.00 70 1018.5
20211208090046 6 125 0.0 6.4 0.00 0.00 0.00 69 1018.5
20211208085537 6 125 3.2 6.4 0.00 0.00 0.00 69 1018.5
20211208085031 6 134 1.6 8.0 0.00 0.00 0.00 68 1018.6
20211208084539 6 360 6.4 8.0 0.00 0.00 0.00 68 1018.5
20211208084033 6 155 1.6 4.8 0.00 0.00 0.00 68 1018.7
20211208083546 6 155 0.0 0.0 0.00 0.00 0.00 68 1018.7
20211208083038 6 155 0.0 3.2 0.00 0.00 0.00 68 1018.7
20211208082546 6 155 0.0 3.2 0.00 0.00 0.00 68 1018.8
20211208082037 7 155 1.6 3.2 0.00 0.00 0.00 68 1018.8
20211208081528 7 155 0.0 1.6 0.00 0.00 0.00 67 1018.8
20211208081038 7 155 0.0 1.6 0.00 0.00 0.00 67 1018.8
20211208080532 7 155 0.0 1.6 0.00 0.00 0.00 67 1018.8
20211208080045 7 155 0.0 1.6 0.00 0.00 0.00 67 1018.9
20211208075528 7 155 0.0 3.2 0.00 0.00 0.00 67 1018.9
20211208075039 7 155 0.0 3.2 0.00 0.00 0.00 66 1018.9
20211208074532 7 155 0.0 3.2 0.00 0.00 0.00 67 1018.9
20211208074044 7 155 1.6 3.2 0.00 0.00 0.00 67 1019.0
20211208073539 7 173 0.0 3.2 0.00 0.00 0.00 67 1019.1
20211208073049 7 174 1.6 3.2 0.00 0.00 0.00 67 1019.1
20211208072539 7 175 0.0 1.6 0.00 0.00 0.00 68 1019.2
20211208072032 7 175 0.0 4.8 0.00 0.00 0.00 68 1019.2
20211208071545 7 175 0.0 4.8 0.00 0.00 0.00 67 1019.2
20211208071034 7 172 3.2 3.2 0.00 0.00 0.00 67 1019.1
20211208070529 8 104 1.6 3.2 0.00 0.00 0.00 66 1019.0
20211208070041 8 103 0.0 3.2 0.00 0.00 0.00 65 1018.9
20211208065535 8 103 1.6 3.2 0.00 0.00 0.00 65 1019.0
20211208065045 8 103 0.0 4.8 0.00 0.00 0.00 64 1019.1
20211208064529 8 103 1.6 6.4 0.00 0.00 0.00 64 1019.0
20211208064038 8 110 3.2 6.4 0.00 0.00 0.00 64 1019.1
20211208063533 8 111 0.0 4.8 0.00 0.00 0.00 64 1019.1
20211208063059 8 111 0.0 4.8 0.00 0.00 0.00 64 1019.0
20211208062541 8 111 1.6 9.7 0.00 0.00 0.00 64 1019.0
20211208062033 8 111 4.8 11.3 0.00 0.00 0.00 64 1019.0
20211208061529 9 124 4.8 11.3 0.00 0.00 0.00 63 1018.9
20211208061042 9 360 4.8 12.9 0.00 0.00 0.00 63 1018.9
20211208060532 9 119 6.4 14.5 0.00 0.00 0.00 63 1018.9
20211208060045 9 95 8.0 14.5 0.00 0.00 0.00 62 1018.8
20211208055537 9 113 4.8 12.9 0.00 0.00 0.00 62 1018.8
20211208055030 9 127 6.4 12.9 0.00 0.00 0.00 62 1018.7
20211208054538 9 166 6.4 9.7 0.00 0.00 0.00 61 1018.6
20211208054033 9 160 6.4 9.7 0.00 0.00 0.00 61 1018.6
20211208053546 10 221 1.6 6.4 0.00 0.00 0.00 60 1018.5
20211208053040 10 175 1.6 9.7 0.00 0.00 0.00 60 1018.4
20211208052546 10 175 1.6 9.7 0.00 0.00 0.00 60 1018.3
20211208052038 10 166 3.2 8.0 0.00 0.00 0.00 59 1018.2
20211208051547 10 146 4.8 11.3 0.00 0.00 0.00 59 1018.0
20211208051037 10 123 4.8 11.3 0.00 0.00 0.00 58 1018.0
20211208050532 10 117 4.8 12.9 0.00 0.00 0.00 58 1018.0
20211208050046 10 96 6.4 16.1 0.00 0.00 0.00 58 1017.9
20211208045539 10 84 8.0 16.1 0.00 0.00 0.00 59 1017.7
20211208045047 10 131 8.0 17.7 0.00 0.00 0.00 59 1017.7
20211208044540 10 360 11.3 17.7 0.00 0.00 0.00 59 1017.6
20211208044034 10 112 11.3 17.7 0.00 0.00 0.00 59 1017.6
20211208043530 10 135 9.7 14.5 0.00 0.00 0.00 58 1017.7
20211208043042 10 148 4.8 12.9 0.00 0.00 0.00 58 1017.7
20211208042536 10 144 4.8 12.9 0.00 0.00 0.00 58 1017.8
20211208042030 10 91 8.0 16.1 0.00 0.00 0.00 58 1017.7
20211208041545 10 139 8.0 16.1 0.00 0.00 0.00 59 1017.7
20211208041031 10 110 9.7 14.5 0.00 0.00 0.00 59 1017.7
20211208040538 10 113 11.3 14.5 0.00 0.00 0.00 58 1017.7
20211208040034 10 105 4.8 9.7 0.00 0.00 0.00 57 1017.6
20211208035547 10 90 4.8 9.7 0.00 0.00 0.00 57 1017.6
20211208035034 10 135 3.2 11.3 0.00 0.00 0.00 56 1017.5
20211208034546 10 130 4.8 11.3 0.00 0.00 0.00 55 1017.4
20211208034039 10 119 4.8 9.7 0.00 0.00 0.00 55 1017.4
20211208033534 10 130 4.8 17.7 0.00 0.00 0.00 55 1017.5
20211208033044 10 121 9.7 17.7 0.00 0.00 0.00 54 1017.4
20211208032533 10 122 4.8 9.7 0.00 0.00 0.00 54 1017.4
20211208032048 10 106 3.2 11.3 0.00 0.00 0.00 54 1017.4
20211208031534 10 99 4.8 12.9 0.00 0.00 0.00 55 1017.5
20211208031029 10 134 6.4 17.7 0.00 0.00 0.00 56 1017.4
20211208030537 11 105 11.3 19.3 0.00 0.00 0.00 56 1017.4
20211208030050 11 125 8.0 22.5 0.00 0.00 0.00 56 1017.4
20211208025533 11 128 12.9 24.1 0.00 0.00 0.00 56 1017.4
20211208025042 11 112 14.5 24.1 0.00 0.00 0.00 56 1017.4
20211208024531 11 96 11.3 16.1 0.00 0.00 0.00 55 1017.5
20211208024045 11 113 8.0 16.1 0.00 0.00 0.00 54 1017.5
20211208023532 11 97 9.7 16.1 0.00 0.00 0.00 54 1017.4
20211208023044 11 129 11.3 19.3 0.00 0.00 0.00 53 1017.4
20211208022538 11 104 11.3 22.5 0.00 0.00 0.00 52 1017.4
20211208022043 11 113 16.1 22.5 0.00 0.00 0.00 52 1017.3
20211208021537 11 86 14.5 24.1 0.00 0.00 0.00 50 1017.2
20211208021033 11 79 14.5 24.1 0.00 0.00 0.00 49 1017.3
20211208020548 12 75 12.9 22.5 0.00 0.00 0.00 47 1017.3
20211208020040 12 79 16.1 25.7 0.00 0.00 0.00 46 1017.2
20211208015532 12 86 16.1 25.7 0.00 0.00 0.00 45 1017.2
20211208015046 11 82 20.9 25.7 0.00 0.00 0.00 44 1017.1
20211208014539 11 94 12.9 22.5 0.00 0.00 0.00 43 1017.0
20211208014049 11 98 14.5 22.5 0.00 0.00 0.00 44 1016.9
20211208013541 11 99 9.7 17.7 0.00 0.00 0.00 45 1016.8
20211208013038 11 88 1.6 6.4 0.00 0.00 0.00 48 1016.8
20211208012531 11 346 0.0 1.6 0.00 0.00 0.00 50 1016.7
20211208012042 11 315 0.0 0.0 0.00 0.00 0.00 51 1016.7
20211208011539 11 315 0.0 3.2 0.00 0.00 0.00 50 1016.7
20211208011033 11 315 1.6 4.8 0.00 0.00 0.00 51 1016.7
20211208010546 11 315 3.2 4.8 0.00 0.00 0.00 51 1016.7
20211208010036 11 338 1.6 4.8 0.00 0.00 0.00 52 1016.8
20211208005531 11 338 0.0 1.6 0.00 0.00 0.00 52 1016.8
20211208005046 11 338 0.0 3.2 0.00 0.00 0.00 52 1016.8
20211208004537 11 338 0.0 3.2 0.00 0.00 0.00 52 1016.8
20211208004048 11 338 0.0 0.0 0.00 0.00 0.00 51 1016.7
20211208003543 11 338 0.0 3.2 0.00 0.00 0.00 51 1016.7
20211208003039 11 338 1.6 3.2 0.00 0.00 0.00 51 1016.7
20211208002549 11 338 0.0 3.2 0.00 0.00 0.00 51 1016.5
20211208002041 11 338 0.0 6.4 0.00 0.00 0.00 50 1016.6
20211208001531 11 338 3.2 9.7 0.00 0.00 0.00 50 1016.5
20211208001043 11 336 4.8 9.7 0.00 0.00 0.00 50 1016.5
20211208000535 11 327 6.4 8.0 0.00 0.00 0.00 49 1016.5
20211208000046 11 342 3.2 8.0 0.00 0.00 0.00 49 1016.4
20211207235541 12 340 6.4 12.9 0.00 0.00 0.00 49 1016.5
20211207235034 12 334 6.4 12.9 0.00 0.00 0.00 49 1016.5
20211207234545 12 355 8.0 16.1 0.00 0.00 0.00 49 1016.4
20211207234039 12 325 9.7 16.1 0.00 0.00 0.00 49 1016.4
20211207233531 12 337 12.9 16.1 0.00 0.00 0.00 49 1016.4
20211207233045 12 335 9.7 17.7 0.00 0.00 0.00 48 1016.3
20211207232536 12 338 12.9 19.3 0.00 0.00 0.00 48 1016.2
20211207232031 12 349 12.9 19.3 0.00 0.00 0.00 46 1016.2
20211207231545 12 360 14.5 17.7 0.00 0.00 0.00 46 1016.0
20211207231041 12 330 9.7 19.3 0.00 0.00 0.00 46 1016.0
20211207230530 13 327 14.5 19.3 0.00 0.00 0.00 46 1015.9
20211207230047 13 330 8.0 17.7 0.00 0.00 0.00 46 1015.9
20211207225540 12 323 12.9 17.7 0.00 0.00 0.00 47 1015.9
20211207225034 12 330 9.7 16.1 0.00 0.00 0.00 46 1015.9
20211207224544 12 318 12.9 16.1 0.00 0.00 0.00 47 1015.8
20211207224038 12 338 8.0 17.7 0.00 0.00 0.00 47 1015.7
20211207223533 12 315 12.9 17.7 0.00 0.00 0.00 46 1015.7
20211207223049 12 327 9.7 20.9 0.00 0.00 0.00 47 1015.6
20211207222538 12 334 12.9 22.5 0.00 0.00 0.00 47 1015.6
20211207222049 12 340 16.1 22.5 0.00 0.00 0.00 47 1015.6
20211207221538 12 322 12.9 22.5 0.00 0.00 0.00 48 1015.6
20211207221032 12 331 12.9 20.9 0.00 0.00 0.00 47 1015.7
20211207220544 12 350 14.5 20.9 0.00 0.00 0.00 46 1015.6
20211207220041 12 316 14.5 20.9 0.00 0.00 0.00 47 1015.6
20211207215537 12 334 11.3 20.9 0.00 0.00 0.00 46 1015.6
20211207215030 12 326 11.3 20.9 0.00 0.00 0.00 47 1015.5
20211207214543 12 336 12.9 20.9 0.00 0.00 0.00 47 1015.5
20211207214039 12 340 12.9 19.3 0.00 0.00 0.00 47 1015.5
20211207213536 12 355 8.0 19.3 0.00 0.00 0.00 48 1015.5
20211207213048 11 321 12.9 19.3 0.00 0.00 0.00 48 1015.5
20211207212537 11 327 14.5 17.7 0.00 0.00 0.00 49 1015.5
20211207212049 11 340 12.9 20.9 0.00 0.00 0.00 50 1015.5
20211207211541 11 319 16.1 20.9 0.00 0.00 0.00 49 1015.5
20211207211030 11 345 9.7 19.3 0.00 0.00 0.00 50 1015.5
20211207210545 11 329 12.9 20.9 0.00 0.00 0.00 51 1015.7
20211207210043 11 342 11.3 24.1 0.00 0.00 0.00 51 1015.8
20211207205535 11 346 12.9 24.1 0.00 0.00 0.00 51 1015.8
20211207205045 10 327 16.1 27.4 0.00 0.00 0.00 53 1015.8
20211207204539 10 316 14.5 27.4 0.00 0.00 0.00 53 1015.8
20211207204032 10 337 16.1 25.7 0.00 0.00 0.00 53 1015.9
20211207203546 10 332 20.9 25.7 0.00 0.00 0.00 52 1015.8
20211207203036 10 325 16.1 29.0 0.00 0.00 0.00 52 1015.8
20211207202550 10 338 20.9 32.2 0.00 0.00 0.00 51 1015.8
20211207202043 10 360 22.5 32.2 0.00 0.00 0.00 52 1016.0
20211207201538 10 329 17.7 29.0 0.00 0.00 0.00 53 1015.9
20211207201048 10 320 17.7 32.2 0.00 0.00 0.00 53 1015.8
20211207200542 10 309 19.3 32.2 0.00 0.00 0.00 53 1015.9
20211207200050 10 319 19.3 27.4 0.00 0.00 0.00 54 1015.9
20211207195539 10 325 22.5 27.4 0.00 0.00 0.00 53 1015.8
20211207195049 10 316 19.3 27.4 0.00 0.00 0.00 54 1015.9
20211207194545 10 322 14.5 29.0 0.00 0.00 0.00 56 1015.9
20211207194039 10 331 17.7 30.6 0.00 0.00 0.00 54 1016.0
20211207193545 10 339 16.1 30.6 0.00 0.00 0.00 53 1016.1
20211207193043 10 340 17.7 25.7 0.00 0.00 0.00 52 1016.0
20211207192533 11 327 20.9 25.7 0.00 0.00 0.00 50 1016.1
20211207192047 11 306 16.1 25.7 0.00 0.00 0.00 49 1016.1
20211207191536 11 339 17.7 25.7 0.00 0.00 0.00 47 1016.2
20211207191031 11 326 19.3 24.1 0.00 0.00 0.00 47 1016.3
20211207190545 12 323 16.1 22.5 0.00 0.00 0.00 47 1016.3
20211207190040 12 339 12.9 22.5 0.00 0.00 0.00 45 1016.3
20211207185548 12 349 17.7 22.5 0.00 0.00 0.00 44 1016.4
20211207185044 12 319 9.7 25.7 0.00 0.00 0.00 44 1016.4
20211207184540 12 302 17.7 25.7 0.00 0.00 0.00 44 1016.4
20211207184034 12 327 14.5 22.5 0.00 0.00 0.00 44 1016.4
20211207183546 12 350 14.5 27.4 0.00 0.00 0.00 45 1016.3
20211207183038 12 340 16.1 27.4 0.00 0.00 0.00 44 1016.2
20211207182550 12 298 12.9 24.1 0.00 0.00 0.00 43 1016.3
20211207182046 12 322 9.7 19.3 0.00 0.00 0.00 42 1016.4
20211207181534 12 327 8.0 17.7 0.00 0.00 0.00 42 1016.4
20211207181049 13 327 9.7 14.5 0.00 0.00 0.00 42 1016.5
20211207180543 12 44 3.2 8.0 0.00 0.00 0.00 43 1016.5
20211207180038 12 340 0.0 3.2 0.00 0.00 0.00 44 1016.4
20211207175542 12 340 1.6 3.2 0.00 0.00 0.00 44 1016.5
20211207175035 11 337 0.0 3.2 0.00 0.00 0.00 45 1016.5
20211207174548 11 335 0.0 3.2 0.00 0.00 0.00 46 1016.6
20211207174039 11 334 0.0 4.8 0.00 0.00 0.00 46 1016.5
20211207173549 11 334 1.6 8.0 0.00 0.00 0.00 46 1016.4
20211207173039 11 334 4.8 8.0 0.00 0.00 0.00 47 1016.4
20211207172534 10 44 0.0 0.0 0.00 0.00 0.00 49 1016.4
20211207172040 10 46 0.0 0.0 0.00 0.00 0.00 50 1016.2
20211207171534 10 44 0.0 6.4 0.00 0.00 0.00 50 1016.1
20211207171047 10 44 1.6 8.0 0.00 0.00 0.00 52 1016.1
20211207170538 9 360 4.8 8.0 0.00 0.00 0.00 55 1016.0
20211207170047 9 59 4.8 8.0 0.00 0.00 0.00 56 1016.0
20211207165538 8 64 4.8 9.7 0.00 0.00 0.00 57 1015.9
20211207165032 8 70 6.4 9.7 0.00 0.00 0.00 58 1015.9
20211207164547 8 139 0.0 3.2 0.00 0.00 0.00 58 1015.9
20211207164035 8 163 0.0 8.0 0.00 0.00 0.00 57 1015.8
20211207163548 8 163 3.2 8.0 0.00 0.00 0.00 57 1015.8
20211207163044 8 267 0.0 4.8 0.00 0.00 0.00 57 1015.9
20211207162536 8 267 0.0 9.7 0.00 0.00 0.00 57 1016.1
20211207162045 7 259 4.8 12.9 0.00 0.00 0.00 58 1016.0
20211207161540 7 254 8.0 12.9 0.00 0.00 0.00 61 1016.0
20211207161034 7 265 6.4 9.7 0.00 0.00 0.00 62 1015.8
20211207160547 7 272 0.0 4.8 0.00 0.00 0.00 62 1015.9
20211207160037 7 272 3.2 4.8 0.00 0.00 0.00 62 1015.8
20211207155547 6 272 1.6 4.8 0.00 0.00 0.00 63 1016.1
20211207155042 6 272 0.0 6.4 0.00 0.00 0.00 63 1015.9
20211207154537 6 272 3.2 11.3 0.00 0.00 0.00 64 1015.7
20211207154045 6 273 4.8 11.3 0.00 0.00 0.00 64 1015.7
20211207153539 6 272 8.0 11.3 0.00 0.00 0.00 64 1015.7
20211207153053 6 217 1.6 9.7 0.00 0.00 0.00 63 1015.6
20211207152540 6 76 6.4 12.9 0.00 0.00 0.00 63 1015.5
20211207152034 7 66 8.0 12.9 0.00 0.00 0.00 62 1015.5
20211207151546 7 63 6.4 12.9 0.00 0.00 0.00 61 1015.7
20211207151036 7 29 3.2 6.4 0.00 0.00 0.00 60 1015.8
20211207150547 7 347 0.0 1.6 0.00 0.00 0.00 60 1015.6
20211207150043 7 347 0.0 1.6 0.00 0.00 0.00 60 1015.3
20211207145536 7 347 0.0 4.8 0.00 0.00 0.00 60 1015.4
20211207145052 7 347 1.6 4.8 0.00 0.00 0.00 60 1015.4
20211207144542 7 347 0.0 4.8 0.00 0.00 0.00 60 1015.3
20211207144037 7 347 1.6 4.8 0.00 0.00 0.00 60 1015.2
20211207143551 7 347 3.2 3.2 0.00 0.00 0.00 60 1015.2
20211207143048 7 347 0.0 0.0 0.00 0.00 0.00 60 1015.2
20211207142536 7 347 0.0 4.8 0.00 0.00 0.00 60 1015.3
20211207142049 7 347 1.6 4.8 0.00 0.00 0.00 60 1015.1
20211207141542 7 346 0.0 9.7 0.00 0.00 0.00 61 1015.1
20211207141036 7 346 3.2 9.7 0.00 0.00 0.00 61 1015.1
20211207140546 7 103 0.0 0.0 0.00 0.00 0.00 63 1015.1
20211207140041 7 103 0.0 0.0 0.00 0.00 0.00 62 1015.1
20211207135534 7 66 0.0 0.0 0.00 0.00 0.00 63 1014.9
20211207135048 7 321 0.0 0.0 0.00 0.00 0.00 62 1015.0
20211207134539 7 321 0.0 0.0 0.00 0.00 0.00 63 1015.2
20211207134033 7 321 0.0 0.0 0.00 0.00 0.00 63 1015.2
20211207133547 7 321 0.0 0.0 0.00 0.00 0.00 63 1015.2
20211207133041 7 321 0.0 0.0 0.00 0.00 0.00 63 1015.2
20211207132551 7 322 0.0 0.0 0.00 0.00 0.00 63 1014.9
20211207132043 7 321 0.0 0.0 0.00 0.00 0.00 63 1015.0
20211207131537 7 322 0.0 0.0 0.00 0.00 0.00 63 1015.2
20211207131046 7 322 0.0 0.0 0.00 0.00 0.00 63 1015.1
20211207130542 7 322 0.0 0.0 0.00 0.00 0.00 63 1015.2